Location: Bear Valley
(38.4650°N, 120.0390°W)
Time: 08:59:57
(UTC-08:00)

Hubble Space Telescope - Visible Passes

Search period start: 23 November 2017 00:00
Search period end: 03 December 2017 00:00
Orbit: 537 x 541 km, 28.5° (Epoch: 22 November)

Date Brightness Start Highest point End Pass type
(mag) Time Alt. Az. Time Alt. Az. Time Alt. Az.
23 Nov 2.9 05:27:28 12° SW 05:29:34 17° S 05:32:12 10° SSE visible
24 Nov 2.9 05:17:54 13° SW 05:19:14 15° SSW 05:21:36 10° SSE visible
25 Nov 3.0 05:08:19 13° SSW 05:08:54 13° SSW 05:10:52 10° SSE visible
26 Nov 3.3 04:58:45 11° SSW 04:58:45 11° SSW 04:59:50 10° S visible
